Flag for Dominican Republic Past Weather in Santiago de los Caballeros, Dominican Republic — Yesterday and Last 2 Weeks

Now
84 °F

Scattered clouds.


Feels Like: 92 °F
Forecast: 76 / 92 °F
Wind: 12 mph from Southeast

Location: Santiago

Current Time: Sep 28, 2016 at 4:37:15 PM

Latest Report: Sep 28, 2016 at 4:00 PM


Visibility: N/A

Pressure: 29.98 "Hg

Humidity: 74%

Dew Point: 75 °F

Location of Santiago de los CaballerosLocation

Past Weather in Santiago de los Caballeros — Graph

°F

Santiago de los Caballeros Temperature Yesterday

Maximum temperature yesterday: 93 °F (at 4:00 PM)
Minimum temperature yesterday: 73 °F (at 6:00 AM)
Average temperature yesterday: 82 °F

High & Low Weather Summary for the Past Weeks

 TemperatureHumidityPressure
High93 °F (Sep 16, 2:00 PM)100% (Sep 14, 3:00 AM)30.07 "Hg (Sep 14, 3:00 AM)
Low70 °F (Sep 16, 6:00 AM)49% (Sep 15, 4:00 PM)29.86 "Hg (Sep 18, 4:00 PM)
Average81 °F81%29.95 "Hg
* Reported Sep 13 3:00 PM — Sep 28 3:00 PM, Santiago de los Caballeros, Weather by CustomWeather, © 2016

Note: Actual official high and low records may vary slightly from our data, if they occured in-between our weather recording intervals... More about our weather records

Advertising

Santiago de los Caballeros Weather History for the Previous 24 Hours

Scroll right to see more
 ConditionsComfort  
Time TempWeatherWind HumidityBarometerVisibility
3:00 PM
Wed, Sep 28
82 °FScattered clouds.10 mph79%29.98 "HgN/A
2:00 PM77 °FThunderstorms. Partly sunny.10 mph100%30.04 "Hg5 mi
12:00 PM86 °FScattered clouds.8 mph75%30.04 "HgN/A
11:00 AM82 °FScattered clouds.9 mph79%30.07 "HgN/A
10:00 AM84 °FPartly sunny.9 mph79%30.07 "HgN/A
9:00 AM81 °FPartly sunny.6 mph89%30.04 "HgN/A
8:00 AM77 °FPartly sunny.No wind94%30.04 "HgN/A
7:00 AM75 °FScattered clouds.3 mph100%30.01 "HgN/A
6:00 AM75 °FPassing clouds.3 mph100%29.98 "HgN/A
5:00 AM77 °FPassing clouds.7 mph94%29.98 "HgN/A
4:00 AM77 °FPassing clouds.No wind94%29.98 "HgN/A
3:00 AM75 °FPassing clouds.No wind100%29.95 "HgN/A
2:00 AM77 °FPassing clouds.7 mph94%29.98 "HgN/A
1:00 AM77 °FPassing clouds.No wind94%29.98 "HgN/A
12:00 AM77 °FPassing clouds.No wind94%29.98 "HgN/A
11:00 PM
Tue, Sep 27
79 °FPassing clouds.6 mph84%29.98 "HgN/A
10:00 PM79 °FPassing clouds.6 mph84%29.98 "HgN/A
9:00 PM81 °FPassing clouds.8 mph79%29.95 "HgN/A
8:00 PM81 °FPassing clouds.8 mph74%29.95 "HgN/A
7:00 PM84 °FPassing clouds.10 mph66%29.92 "HgN/A
5:00 PM88 °FPartly sunny.9 mph59%29.89 "HgN/A
4:00 PM93 °FScattered clouds.15 mph53%29.86 "HgN/A
Weather by CustomWeather, © 2016

See weather overviewHow to use our weather pages